Location: Walnut Street Observatory
(41.0583°N, 76.2295°W)
Time: 06:24:39
(UTC-04:00)

Daily predictions for brighter satellites

Satellite Brightness Start Highest point End
(mag) Time Altitude Azimuth Time Altitude Azimuth Time Altitude Azimuth
H-2A R/B 4.1 20:59:49 10° E 21:01:36 12° ENE 21:03:24 10° NE
Tiangong 2 1.4 20:58:54 10° W 21:02:05 71° N 21:05:16 10° ENE
Helios 1B rocket 2.5 20:58:49 10° NNE 21:02:56 61° ESE 21:07:01 10° S
Cosmos 1680 Rocket 3.8 20:59:41 10° SSW 21:04:54 75° WNW 21:10:08 10° NNE
Meteor 2-13 Rocket 4.5 20:59:12 10° N 21:05:18 82° E 21:11:23 10° S
Meteor 1-19 Rocket 4.4 21:00:25 10° S 21:06:14 85° W 21:11:59 10° N
Aureole 1 Rocket 2.4 21:04:01 10° SSW 21:07:13 74° WNW 21:10:11 10° NNE
Meteor 1-23 Rocket 4.4 21:02:02 10° S 21:07:25 53° E 21:12:53 10° NNE
Cosmos 1346 3.8 21:05:19 10° SSW 21:08:00 50° WNW 21:10:43 10° N
Cosmos 2056 Rocket 4.0 21:04:27 10° N 21:09:22 43° ENE 21:14:13 10° SE
Envisat 3.1 21:05:51 10° SSE 21:10:55 88° WSW 21:16:02 10° NNW
DNEPR-1 R/B 4.3 21:10:53 10° NW 21:15:02 50° WSW 21:19:36 10° SSE
Lacrosse 5 rocket 4.4 21:14:19 10° N 21:15:39 11° N 21:16:58 10° NNE
SAR-Lupe-4 3.5 21:12:25 10° SSE 21:16:00 85° ENE 21:19:36 10° NNW
Cosmos 2082 Rocket 3.3 21:11:49 10° SSE 21:16:18 25° ESE 21:20:47 10° NE
Cosmos 2278 4.4 21:12:57 10° N 21:18:18 40° ENE 21:23:15 12° SE
COSMOS 2406 4.3 21:14:16 10° SW 21:19:49 49° WNW 21:25:21 10° NNE
Okean 1-7 Rocket 3.6 21:18:34 10° S 21:23:01 78° E 21:27:33 10° N
Cosmos 1743 4.2 21:19:41 10° NNW 21:23:18 38° W 21:26:55 10° SSW
YAOGAN 6 2.6 21:20:03 10° SSE 21:23:29 62° ENE 21:26:59 10° N
Okean 2 3.5 21:21:48 10° S 21:25:47 55° E 21:29:47 10° NNE
Cosmos 1606 Rocket 4.0 21:22:47 10° N 21:26:56 44° ENE 21:30:35 13° SSE
Cosmos 1025 Rocket 2.9 21:26:50 10° S 21:31:06 85° E 21:35:22 10° N
SPOT 5 3.8 21:28:06 13° ESE 21:31:11 28° ENE 21:34:56 10° N
CZ-4B DEB 3.2 21:29:19 10° S 21:32:13 54° W 21:35:11 10° NNW
SAR-Lupe-1 4.3 21:28:41 10° S 21:32:15 70° WSW 21:35:51 10° NNW
Meteor 1-15 Rocket 4.2 21:26:49 10° N 21:32:25 73° E 21:37:57 10° SSE
Cosmos 1656 4.5 21:27:52 10° N 21:32:54 36° ENE 21:37:02 14° ESE
Cosmos 1697 Rocket 4.0 21:28:59 10° N 21:33:45 27° NE 21:37:54 13° ESE
MOS 1-B Rocket 4.3 21:29:13 12° SE 21:34:29 54° ENE 21:40:56 10° N
Cosmos 1726 Rocket 3.9 21:31:42 10° N 21:35:53 46° ENE 21:39:06 16° SSE
Cosmos 2341 Rocket 4.2 21:30:35 10° N 21:36:50 56° E 21:42:28 13° SSE
Cosmos 405 3.5 21:34:16 10° NNW 21:37:46 58° W 21:41:14 10° S
Cosmos 2369 4.0 21:33:20 10° NNW 21:38:59 57° ENE 21:43:25 16° SE
Cosmos 1666 4.2 21:37:16 10° NNW 21:40:41 34° W 21:44:05 10° SSW
Cosmos 1452 Rocket 4.4 21:36:19 10° N 21:41:07 35° ENE 21:44:39 16° ESE
COSMOS 2487 2.8 21:37:57 10° S 21:41:21 44° ESE 21:44:47 10° NNE
CENTAUR R/B 4.4 21:35:37 10° NW 21:42:40 34° WSW 21:49:58 10° S
MetOp-A 4.2 21:41:22 15° SSE 21:45:50 63° ENE 21:51:09 10° N
ERS-1 Rocket 2.9 21:41:26 12° SSE 21:46:03 84° ENE 21:51:07 10° NNW
USA 245 3.5 21:47:12 21° E 21:47:34 22° ENE 21:49:28 10° NNE
Cosmos 1833 Rocket 3.0 21:43:52 10° S 21:49:07 43° ESE 21:54:25 10° NE
Cosmos 1371 Rocket 4.4 21:44:02 10° NNW 21:49:17 64° WSW 21:54:08 12° S
ISS -1.1 21:49:18 10° WNW 21:51:58 22° NNW 21:54:36 10° NNE
OAO 2 Rocket 4.2 21:47:47 10° WSW 21:52:09 32° SSW 21:54:39 20° SSE
SPOT 1/Viking Rocket 4.3 21:49:30 18° SE 21:52:46 38° ENE 21:57:31 10° N
Cosmos 2058 Rocket 3.2 21:51:24 10° N 21:55:46 57° E 21:58:30 22° SSE
Iridium 43 4.4 21:58:53 10° NNE 22:00:46 31° ENE 22:00:46 31° ENE
Cosmos 1295 Rocket 4.5 21:58:19 10° N 22:04:32 76° E 22:09:16 18° SSE
YAOGAN 11 4.0 22:02:03 23° SSE 22:04:42 75° ENE 22:09:03 10° N
Cosmos 2181 Rocket 4.0 21:58:51 10° S 22:05:12 78° E 22:11:30 10° N
Cosmos 1437 Rocket 3.5 22:02:28 10° NNW 22:06:13 48° W 22:09:19 14° SSW
ASTEX 1 4.3 22:01:37 10° SSW 22:06:19 47° W 22:11:04 10° NNW
Cosmos 1066 Rocket 4.3 22:06:49 19° SSE 22:10:46 58° E 22:16:18 10° NNE
Cosmos 1515 4.2 22:09:19 11° SSW 22:12:59 59° W 22:16:46 10° N
H-2A R/B 3.6 22:11:41 20° E 22:13:23 25° ENE 22:17:02 10° NNE
Cosmos 1980 Rocket 3.0 22:17:48 10° N 22:23:07 39° ENE 22:25:49 25° ESE
Cosmos 1626 Rocket 3.7 22:21:47 34° SE 22:23:14 50° E 22:27:25 10° NNE
ARGOS 3.2 22:20:51 23° S 22:24:22 79° WSW 22:29:49 10° NNW
Cosmos 2228 3.3 22:29:32 10° NNW 22:33:47 62° W 22:35:49 29° SSW
TELKOM 3 3.6 22:31:34 10° WNW 22:33:53 61° SW 22:33:53 61° SW
Cosmos 2322 Rocket 4.0 22:30:28 10° N 22:34:35 20° NE 22:37:39 13° E
Cosmos 921 Rocket 4.2 22:30:28 10° NNW 22:34:36 38° W 22:37:02 21° SSW
Cosmos 1953 4.3 22:32:23 10° NNE 22:35:05 17° ENE 22:35:24 17° ENE
Tiangong 2 1.2 22:35:48 10° WNW 22:38:58 69° N 22:39:21 60° ENE
H-2A R/B 1.9 22:38:01 34° SSE 22:40:13 87° WSW 22:45:19 10° NNW
SL-8 Rocket 4.1 22:34:04 10° N 22:40:20 77° W 22:44:11 25° S
Landsat 7 3.8 22:40:00 40° SSE 22:41:42 73° ENE 22:46:27 10° N
Cosmos 1766 3.4 22:38:20 10° N 22:42:10 51° E 22:42:35 48° ESE
Meteor 1-21 4.4 22:41:30 35° SSE 22:43:38 54° E 22:49:13 10° NNE
Cosmos 2366 rocket 3.9 22:41:04 10° N 22:47:16 89° E 22:50:17 32° S
CZ-3A R/B 3.1 22:50:06 10° W 22:51:23 14° NW 22:51:31 14° NW
Lacrosse 5 rocket 3.6 22:52:49 10° NNW 22:56:29 22° NNE 22:59:32 13° ENE
Terra 1.8 22:55:30 49° SE 22:56:43 72° ENE 23:01:28 10° N
Meteor 1-4 Rocket 3.3 22:54:20 10° NNW 22:57:44 43° W 22:58:16 39° WSW
Cosmos 1602 Rocket 3.7 22:57:24 37° SSW 22:58:57 66° W 23:03:16 10° N
Cosmos 2082 Rocket 3.2 22:54:36 10° SW 23:00:03 47° WNW 23:05:31 10° NNE
Cosmos 1269 Rocket 4.0 23:01:07 33° SSW 23:03:36 88° WNW 23:08:56 10° NNE
Cosmos 1420 Rocket 4.2 23:02:15 10° NNW 23:07:26 62° WSW 23:08:59 42° SSW
SPOT 5 4.4 23:07:20 18° SW 23:09:15 24° W 23:12:50 10° NW
DMSP B5D2-2 4.2 23:04:11 10° N 23:09:27 73° WNW 23:11:58 32° SSW
Cosmos 1048 Rocket 4.1 23:08:12 30° SSW 23:10:44 73° WNW 23:15:56 10° NNE
Cosmos 1805 3.4 23:07:01 10° N 23:10:42 60° ENE 23:10:42 60° ENE
Meteor 2-14 Rocket 4.5 23:07:21 10° NNW 23:13:24 73° W 23:15:45 39° S
deb Chang Zheng 4 3.4 23:09:38 10° NNE 23:13:58 86° E 23:14:27 71° S
Cosmos 1110 Rocket 4.4 23:12:33 10° N 23:17:38 48° ENE 23:18:39 43° E
Cosmos 1697 Rocket 3.4 23:12:34 10° NW 23:17:52 44° WSW 23:19:38 34° SSW
Cosmos 1758 3.6 23:14:25 10° N 23:18:04 56° ENE 23:18:04 56° ENE
Cosmos 389 Rocket 3.5 23:15:58 10° N 23:18:31 37° NE 23:18:31 37° NE
Spot 4 3.8 23:21:37 61° ESE 23:22:14 68° ENE 23:27:01 10° N
USA 267 3.9 23:17:55 10° ENE 23:22:58 33° ESE 23:22:58 33° ESE
Lacrosse 5 2.7 23:25:30 36° E 23:25:30 36° E 23:28:55 10° NE
CARTOSAT-1 3.9 23:24:03 51° SW 23:24:31 54° W 23:28:47 10° NNW
Cosmos 2360 4.2 23:21:05 10° NNW 23:26:49 78° WSW 23:28:04 55° S
Iridium 2 4.0 23:24:09 10° N 23:27:42 61° WNW 23:27:42 61° WNW
SL-16 R/B 2.8 23:22:40 10° NNW 23:28:10 47° ENE 23:29:33 39° E
ISS -0.6 23:27:43 10° NNW 23:29:23 13° N 23:31:02 10° NNE
Cosmos 1934 Rocket 4.4 23:24:25 10° N 23:30:35 49° ENE 23:32:02 42° ESE
NOSS 3-1 (C) 4.3 23:23:30 10° NNW 23:31:00 63° NE 23:34:52 33° ESE
SeaSat 1 4.4 23:30:49 16° E 23:32:46 21° NE 23:36:22 10° N
IGS 5A 4.1 23:32:35 45° WSW 23:32:47 45° W 23:36:48 10° NNW
CZ-2C R/B 4.5 23:33:01 25° E 23:34:24 28° ENE 23:39:08 10° N
DELTA 2 DEB (DPAF) 4.0 23:34:36 79° E 23:34:43 80° ENE 23:39:13 10° N
ATLAS CENTAUR R/B 2.2 23:35:31 10° NNW 23:38:30 38° NNE 23:38:30 38° NNE
Cosmos 1842 4.2 23:38:51 40° W 23:39:06 41° WNW 23:42:51 10° N
Cosmos 1271 Rocket 3.8 23:37:03 10° NNW 23:40:35 38° W 23:40:35 38° W
CZ-4C R/B 3.9 23:45:30 50° NNW 23:45:30 50° NNW 23:48:17 10° NNW
Cosmos 1758 Rocket 3.5 23:47:43 77° NNW 23:47:43 77° NNW 23:51:49 10° N
Cosmos 2251 Rocket 3.4 23:47:57 68° SE 23:48:10 69° ESE 23:53:32 10° NNE
H-2A R/B 3.3 23:48:48 32° WSW 23:49:13 33° W 23:53:18 10° NNW
Cosmos 1733 4.0 23:45:46 10° N 23:48:41 46° NNE 23:48:41 46° NNE
